Tracking 24120 objects as of 4-Dec-2021
HD Live streaming from Space Station
objects crossing your sky now

MOVE-IIB

Track MOVE-IIB now!
10-day predictions
MOVE-IIB is classified as:


NORAD ID: 44398
Int'l Code: 2019-038N
Perigee: 511.5 km
Apogee: 546.4 km
Inclination: 97.6 °
Period: 95.1 minutes
Semi major axis: 6899 km
RCS: Unknown
Launch date: July 5, 2019
Source: (TBD)
Launch site: VOSTOCHNY COSMODROME (VOSTO)

Uplink (MHz):
Downlink (MHz): 145.840
Beacon (MHz):
Mode: 12k5bps QPSK
Call sign:
Status: Unknown

aabbcc
Your satellite tracking list
Your tracking list is empty




NASA's NSSDC Master Catalog

Two Line Element Set (TLE):
1 44398U 19038N   21338.15478167  .00004505  00000-0  24492-3 0  9993
2 44398  97.6052 301.7099 0025311  82.8141 277.5970 15.14725695133441
Source of the keplerian elements: AFSPC